Location: Newark
(45.7425°N, 0.7617°W)
Time: 19:45:01
(UTC+00:00)

N. Korean satellite - Pass Details

Date: 29 January 2020
Orbit: 456 x 506 km, 97.2° (Epoch: 17 February)

Event Time Altitude Azimuth Distance (km) Brightness Sun altitude
Rises 05:34:00 0° 18° (NNE) 2,551 10.4 -20.1°
Reaches altitude 10° 05:36:08 10° 24° (NNE) 1,675 9.5 -19.7°
Maximum altitude 05:39:37 46° 99° (E) 668 7.7 -19.1°
Drops below altitude 10° 05:43:07 10° 174° (S) 1,687 9.5 -18.5°
Sets 05:45:15 0° 180° (S) 2,572 10.3 -18.1°
